Location: Caltech
(34.1382°N, 118.1253°W)
Time: 02:43:41
(UTC-07:00)

JAS-1B - Visible Passes

Search period start: 26 April 2015 00:00
Search period end: 06 May 2015 00:00
Orbit: 911 x 1744 km, 99.1° (Epoch: 25 April)

Date Brightness Start Highest point End Pass type
(mag) Time Alt. Az. Time Alt. Az. Time Alt. Az.
26 Apr 8.8 01:42:43 10° N 01:49:59 38° WNW 01:49:59 38° WNW visible
27 Apr 8.4 00:10:35 10° NNE 00:17:15 53° NE 00:17:15 53° NE visible
27 Apr 9.1 02:02:13 10° N 02:09:30 29° WNW 02:09:31 29° WNW visible
27 Apr 9.7 22:42:08 10° NE 22:44:32 14° ENE 22:44:32 14° ENE visible
28 Apr 8.2 00:29:32 10° NNE 00:36:49 66° NNE 00:36:49 66° NNE visible
28 Apr 9.4 02:21:54 10° NNW 02:28:22 22° WNW 02:29:05 22° WNW visible
28 Apr 9.4 22:59:48 10° NE 23:04:05 21° ENE 23:04:05 21° ENE visible
29 Apr 8.2 00:48:36 10° N 00:56:21 69° NNW 00:56:21 69° NNW visible
29 Apr 9.7 02:41:56 10° NNW 02:47:09 16° WNW 02:48:38 15° WNW visible
29 Apr 9.1 23:18:01 10° NE 23:23:37 29° ENE 23:23:37 29° ENE visible
30 Apr 8.3 01:07:46 10° N 01:15:54 58° NW 01:15:54 58° NW visible
30 Apr 9.9 03:02:52 10° NW 03:05:51 11° WNW 03:08:07 10° WNW visible
30 Apr 8.8 23:36:33 10° NNE 23:43:10 39° ENE 23:43:10 39° ENE visible
01 May 8.6 01:27:02 10° N 01:35:27 46° WNW 01:35:27 46° WNW visible
01 May 8.5 23:55:17 10° NNE 00:02:44 52° ENE 00:02:44 52° ENE visible
02 May 8.9 01:46:25 10° N 01:54:28 35° WNW 01:55:00 35° WNW visible
02 May 9.8 22:28:00 10° ENE 22:30:00 12° ENE 22:30:00 12° ENE visible
03 May 8.2 00:14:09 10° NNE 00:22:16 67° ENE 00:22:16 67° ENE visible
03 May 9.3 02:05:59 10° N 02:13:21 27° WNW 02:14:33 26° WNW visible
03 May 9.5 22:45:06 10° NE 22:49:32 19° ENE 22:49:32 19° ENE visible
04 May 8.1 00:33:10 10° NNE 00:41:48 80° N 00:41:48 80° N visible
04 May 9.5 02:25:46 10° NNW 02:32:09 20° WNW 02:34:05 19° WNW visible
04 May 9.2 23:03:05 10° NE 23:09:05 26° ENE 23:09:05 26° ENE visible
05 May 8.2 00:52:16 10° N 01:01:21 69° WNW 01:01:21 69° WNW visible
05 May 9.8 02:45:57 10° NNW 02:50:53 15° WNW 02:53:37 13° WNW visible
05 May 8.9 23:21:28 10° NNE 23:28:37 35° E 23:28:37 35° E visible
